User: anonymous   Login
Location: Unspecified
(0.0000°N, 0.0000°E)
Time: 07:48:35
(UTC+00:00)
Language:

HEAD-3E - Orbit

View from above orbital plane
View from above orbital plane
View from above satellite
View from above satellite

Ground track
Ground track

The orbit is defined by the following mean orbital elements,

1 57630U          26145.64403388 +.00000000 +00000-0 +20299-3 0 00003
2 57630  45.0028  39.0844 0006941 142.9591 217.1748 14.63809840    04
Epoch (UTC): 25 May 2026 15:27:24
Eccentricity: 0.0006941
inclination: 45.0028°
perigee height: 676 km
apogee height: 686 km
right ascension of ascending node: 39.0844°
argument of perigee: 142.9591°
revolutions per day: 14.63809840
mean anomaly at epoch: 217.1748°

The dashed part of the orbit path shows where the satellite is in the earth's shadow,  

DLR